Time,TemperatureF,DewpointF,PressureIn,WindDirection,WindDirectionDegrees,WindSpeedMPH,WindSpeedGustMPH,Humidity,HourlyPrecipIn,Conditions,Clouds,dailyrainin,SoftwareType,DateUTC
2014-10-30 00:02:00,59.5,55.6,29.96,ESE,105,2.3,2.3,87,0.00,CLR,,0.00,WeatherDisplay:10.37,2014-10-30 07:02:00,
2014-10-30 00:07:00,59.5,55.3,29.95,East,98,3.5,3.5,86,0.00,CLR,,0.00,WeatherDisplay:10.37,2014-10-30 07:07:00,
2014-10-30 00:12:00,59.4,54.9,29.95,East,90,6.0,6.0,85,0.00,CLR,,0.00,WeatherDisplay:10.37,2014-10-30 07:12:00,
2014-10-30 00:17:00,59.4,54.9,29.95,East,86,3.5,3.5,85,0.00,CLR,,0.00,WeatherDisplay:10.37,2014-10-30 07:17:00,
2014-10-30 00:22:00,59.5,55.3,29.95,ENE,78,1.2,1.2,86,0.00,CLR,,0.00,WeatherDisplay:10.37,2014-10-30 07:22:00,
2014-10-30 00:27:00,59.7,55.8,29.95,ENE,78,1.2,1.2,87,0.00,CLR,,0.00,WeatherDisplay:10.37,2014-10-30 07:27:00,
2014-10-30 00:32:00,59.7,55.8,29.94,ENE,78,1.0,1.0,87,0.00,CLR,,0.00,WeatherDisplay:10.37,2014-10-30 07:32:00,
2014-10-30 00:37:00,59.7,55.2,29.94,East,86,2.3,2.3,85,0.00,CLR,,0.00,WeatherDisplay:10.37,2014-10-30 07:37:00,
2014-10-30 00:42:00,59.5,55.0,29.94,SE,125,3.0,3.0,85,0.00,CLR,,0.00,WeatherDisplay:10.37,2014-10-30 07:42:00,
2014-10-30 00:47:00,59.4,54.2,29.94,SE,134,3.5,3.5,83,0.00,CLR,,0.00,WeatherDisplay:10.37,2014-10-30 07:47:00,
2014-10-30 00:52:00,59.5,53.7,29.94,ESE,115,3.5,3.5,81,0.00,CLR,,0.00,WeatherDisplay:10.37,2014-10-30 07:52:00,
2014-10-30 00:57:00,60.3,53.8,29.93,ESE,113,5.8,5.8,79,0.00,CLR,,0.00,WeatherDisplay:10.37,2014-10-30 07:57:00,
2014-10-30 01:02:00,60.9,53.6,29.93,SE,131,6.0,6.0,77,0.00,CLR,,0.00,WeatherDisplay:10.37,2014-10-30 08:02:00,
2014-10-30 01:07:00,61.6,53.6,29.93,SE,136,5.8,5.8,75,0.00,CLR,,0.00,WeatherDisplay:10.37,2014-10-30 08:07:00,
2014-10-30 01:12:00,62.1,53.7,29.93,SE,133,7.0,7.0,74,0.00,CLR,,0.00,WeatherDisplay:10.37,2014-10-30 08:12:00,
2014-10-30 01:17:00,62.6,53.8,29.93,ESE,107,9.2,9.2,73,0.00,CLR,,0.00,WeatherDisplay:10.37,2014-10-30 08:17:00,
2014-10-30 01:22:00,63.2,53.6,29.93,ESE,115,8.1,8.1,71,0.00,CLR,,0.00,WeatherDisplay:10.37,2014-10-30 08:22:00,
2014-10-30 01:27:00,63.8,53.8,29.93,ESE,110,10.0,10.0,70,0.00,CLR,,0.00,WeatherDisplay:10.37,2014-10-30 08:27:00,
2014-10-30 01:32:00,64.2,53.8,29.93,East,98,10.4,10.4,69,0.00,CLR,,0.00,WeatherDisplay:10.37,2014-10-30 08:32:00,
2014-10-30 01:37:00,64.5,53.3,29.93,East,99,9.2,9.2,67,0.00,CLR,,0.00,WeatherDisplay:10.37,2014-10-30 08:37:00,
2014-10-30 01:42:00,64.8,53.6,29.93,East,92,11.5,11.5,67,0.00,CLR,,0.00,WeatherDisplay:10.37,2014-10-30 08:42:00,
2014-10-30 01:47:00,65.0,53.4,29.93,ESE,105,8.1,8.1,66,0.00,CLR,,0.00,WeatherDisplay:10.37,2014-10-30 08:47:00,
2014-10-30 01:52:00,65.1,53.5,29.93,SE,126,8.1,8.1,66,0.00,CLR,,0.00,WeatherDisplay:10.37,2014-10-30 08:52:00,
2014-10-30 01:57:00,65.1,53.0,29.93,SE,128,7.0,7.0,65,0.00,CLR,,0.00,WeatherDisplay:10.37,2014-10-30 08:57:00,
2014-10-30 02:02:00,65.1,53.0,29.93,ESE,123,7.0,7.0,65,0.00,CLR,,0.00,WeatherDisplay:10.37,2014-10-30 09:02:00,
2014-10-30 02:07:00,64.7,53.1,29.92,ESE,112,6.9,6.9,66,0.00,CLR,,0.00,WeatherDisplay:10.37,2014-10-30 09:07:00,
2014-10-30 02:12:00,64.4,53.2,29.93,ESE,109,7.0,7.0,67,0.00,CLR,,0.00,WeatherDisplay:10.37,2014-10-30 09:12:00,
2014-10-30 02:17:00,64.1,53.3,29.93,East,96,6.9,6.9,68,0.00,CLR,,0.00,WeatherDisplay:10.37,2014-10-30 09:17:00,
2014-10-30 02:22:00,63.9,53.1,29.93,ESE,116,7.0,7.0,68,0.00,CLR,,0.00,WeatherDisplay:10.37,2014-10-30 09:22:00,
2014-10-30 02:27:00,63.8,53.0,29.93,ESE,114,6.9,6.9,68,0.00,CLR,,0.00,WeatherDisplay:10.37,2014-10-30 09:27:00,
2014-10-30 02:32:00,63.9,53.1,29.92,ESE,103,8.0,8.0,68,0.00,CLR,,0.00,WeatherDisplay:10.37,2014-10-30 09:32:00,
2014-10-30 02:37:00,64.0,53.2,29.92,ESE,112,6.9,6.9,68,0.00,CLR,,0.00,WeatherDisplay:10.37,2014-10-30 09:37:00,
2014-10-30 02:42:00,64.0,53.2,29.92,ESE,119,4.0,4.0,68,0.00,CLR,,0.00,WeatherDisplay:10.37,2014-10-30 09:42:00,
2014-10-30 02:47:00,63.9,53.5,29.92,ESE,117,3.5,3.5,69,0.00,CLR,,0.00,WeatherDisplay:10.37,2014-10-30 09:47:00,
2014-10-30 02:52:00,63.8,53.4,29.92,ESE,111,4.0,4.0,69,0.00,CLR,,0.00,WeatherDisplay:10.37,2014-10-30 09:52:00,
2014-10-30 02:57:00,63.5,53.5,29.92,ESE,115,4.0,4.0,70,0.00,CLR,,0.00,WeatherDisplay:10.37,2014-10-30 09:57:00,
2014-10-30 03:02:00,63.2,53.3,29.92,ESE,105,6.0,6.0,70,0.00,CLR,,0.00,WeatherDisplay:10.37,2014-10-30 10:02:00,
2014-10-30 03:07:00,63.0,53.4,29.92,East,96,6.9,6.9,71,0.00,CLR,,0.00,WeatherDisplay:10.37,2014-10-30 10:07:00,
2014-10-30 03:12:00,63.0,53.4,29.92,East,98,5.8,5.8,71,0.00,CLR,,0.00,WeatherDisplay:10.37,2014-10-30 10:12:00,
2014-10-30 03:17:00,63.0,53.4,29.92,ESE,109,6.0,6.0,71,0.00,CLR,,0.00,WeatherDisplay:10.37,2014-10-30 10:17:00,
2014-10-30 03:22:00,63.1,53.5,29.92,SE,124,6.0,6.0,71,0.00,CLR,,0.00,WeatherDisplay:10.37,2014-10-30 10:22:00,
2014-10-30 03:27:00,63.1,53.5,29.92,East,101,6.9,6.9,71,0.00,CLR,,0.00,WeatherDisplay:10.37,2014-10-30 10:27:00,
2014-10-30 03:32:00,63.0,53.4,29.92,ESE,105,6.9,6.9,71,0.00,CLR,,0.00,WeatherDisplay:10.37,2014-10-30 10:32:00,
2014-10-30 03:37:00,62.9,53.4,29.92,East,90,6.9,6.9,71,0.00,CLR,,0.00,WeatherDisplay:10.37,2014-10-30 10:37:00,
2014-10-30 03:42:00,62.9,53.4,29.92,East,94,8.1,8.1,71,0.00,CLR,,0.00,WeatherDisplay:10.37,2014-10-30 10:42:00,
2014-10-30 03:47:00,63.0,53.8,29.91,East,94,9.0,9.0,72,0.00,CLR,,0.00,WeatherDisplay:10.37,2014-10-30 10:47:00,
2014-10-30 03:52:00,63.2,54.0,29.91,East,92,9.2,9.2,72,0.00,CLR,,0.00,WeatherDisplay:10.37,2014-10-30 10:52:00,
2014-10-30 03:57:00,63.3,53.7,29.91,East,91,9.2,9.2,71,0.00,CLR,,0.00,WeatherDisplay:10.37,2014-10-30 10:57:00,
2014-10-30 04:02:00,63.6,53.2,29.91,ENE,72,8.1,8.1,69,0.00,CLR,,0.00,WeatherDisplay:10.37,2014-10-30 11:02:00,
2014-10-30 04:07:00,64.0,52.8,29.90,NE,45,10.0,10.0,67,0.00,CLR,,0.00,WeatherDisplay:10.37,2014-10-30 11:07:00,
2014-10-30 04:12:00,64.7,52.7,29.90,ENE,66,9.2,9.2,65,0.00,CLR,,0.00,WeatherDisplay:10.37,2014-10-30 11:12:00,
2014-10-30 04:17:00,64.9,53.7,29.90,SE,135,8.1,8.1,67,0.00,CLR,,0.00,WeatherDisplay:10.37,2014-10-30 11:17:00,
2014-10-30 04:22:00,64.3,53.9,29.90,East,90,9.0,9.0,69,0.00,CLR,,0.00,WeatherDisplay:10.37,2014-10-30 11:22:00,
2014-10-30 04:27:00,63.9,53.5,29.90,ENE,63,5.8,5.8,69,0.00,CLR,,0.00,WeatherDisplay:10.37,2014-10-30 11:27:00,
2014-10-30 04:32:00,63.7,53.3,29.90,ESE,107,4.0,4.0,69,0.00,CLR,,0.00,WeatherDisplay:10.37,2014-10-30 11:32:00,
2014-10-30 04:37:00,63.6,53.2,29.90,SE,132,6.9,6.9,69,0.00,CLR,,0.00,WeatherDisplay:10.37,2014-10-30 11:37:00,
2014-10-30 04:42:00,63.5,53.5,29.90,East,85,2.3,2.3,70,0.00,CLR,,0.00,WeatherDisplay:10.37,2014-10-30 11:42:00,
2014-10-30 04:47:00,63.3,54.1,29.90,NNE,22,2.3,2.3,72,0.00,CLR,,0.00,WeatherDisplay:10.37,2014-10-30 11:47:00,
2014-10-30 04:52:00,63.0,53.8,29.90,SSE,152,5.0,5.0,72,0.00,CLR,,0.00,WeatherDisplay:10.37,2014-10-30 11:52:00,
2014-10-30 04:57:00,62.8,54.0,29.90,SE,142,4.0,4.0,73,0.00,CLR,,0.00,WeatherDisplay:10.37,2014-10-30 11:57:00,
2014-10-30 05:02:00,62.7,53.9,29.90,SE,136,4.0,4.0,73,0.00,CLR,,0.00,WeatherDisplay:10.37,2014-10-30 12:02:00,
2014-10-30 05:07:00,62.6,54.2,29.90,SE,140,3.5,3.5,74,0.00,CLR,,0.00,WeatherDisplay:10.37,2014-10-30 12:07:00,
2014-10-30 05:12:00,62.4,54.0,29.90,ESE,119,4.0,4.0,74,0.00,CLR,,0.00,WeatherDisplay:10.37,2014-10-30 12:12:00,
2014-10-30 05:17:00,62.3,53.9,29.90,ESE,109,3.5,3.5,74,0.00,CLR,,0.00,WeatherDisplay:10.37,2014-10-30 12:17:00,
2014-10-30 05:22:00,62.1,53.7,29.90,ESE,114,4.0,4.0,74,0.00,CLR,,0.00,WeatherDisplay:10.37,2014-10-30 12:22:00,
2014-10-30 05:27:00,62.0,54.0,29.91,ESE,121,3.5,3.5,75,0.00,CLR,,0.00,WeatherDisplay:10.37,2014-10-30 12:27:00,
2014-10-30 05:32:00,61.9,53.9,29.90,ESE,119,3.5,3.5,75,0.00,CLR,,0.00,WeatherDisplay:10.37,2014-10-30 12:32:00,
2014-10-30 05:37:00,61.8,53.8,29.90,ESE,119,2.3,2.3,75,0.00,CLR,,0.00,WeatherDisplay:10.37,2014-10-30 12:37:00,
2014-10-30 05:42:00,61.6,53.6,29.90,ESE,119,2.3,2.3,75,0.00,CLR,,0.00,WeatherDisplay:10.37,2014-10-30 12:42:00,
2014-10-30 05:47:00,61.5,53.9,29.90,SE,140,3.5,3.5,76,0.00,CLR,,0.00,WeatherDisplay:10.37,2014-10-30 12:47:00,
2014-10-30 05:52:00,61.3,53.7,29.90,SE,140,2.3,2.3,76,0.00,CLR,,0.00,WeatherDisplay:10.37,2014-10-30 12:52:00,
2014-10-30 05:57:00,61.2,53.6,29.90,ESE,111,3.0,3.0,76,0.00,CLR,,0.00,WeatherDisplay:10.37,2014-10-30 12:57:00,
2014-10-30 06:02:00,61.1,53.5,29.91,ESE,117,2.3,2.3,76,0.00,CLR,,0.00,WeatherDisplay:10.37,2014-10-30 13:02:00,
2014-10-30 06:07:00,60.9,53.3,29.91,East,87,3.0,3.0,76,0.00,CLR,,0.00,WeatherDisplay:10.37,2014-10-30 13:07:00,
2014-10-30 06:12:00,60.9,53.6,29.91,East,91,3.5,3.5,77,0.00,CLR,,0.00,WeatherDisplay:10.37,2014-10-30 13:12:00,
2014-10-30 06:17:00,61.0,53.4,29.91,East,88,2.3,2.3,76,0.00,CLR,,0.00,WeatherDisplay:10.37,2014-10-30 13:17:00,
2014-10-30 06:22:00,61.0,53.4,29.91,ESE,106,3.5,3.5,76,0.00,CLR,,0.00,WeatherDisplay:10.37,2014-10-30 13:22:00,
2014-10-30 06:27:00,60.9,53.3,29.90,ESE,105,3.5,3.5,76,0.00,CLR,,0.00,WeatherDisplay:10.37,2014-10-30 13:27:00,
2014-10-30 06:32:00,60.9,53.3,29.91,SE,128,4.0,4.0,76,0.00,CLR,,0.00,WeatherDisplay:10.37,2014-10-30 13:32:00,
2014-10-30 06:37:00,60.9,53.6,29.91,SE,132,4.0,4.0,77,0.00,CLR,,0.00,WeatherDisplay:10.37,2014-10-30 13:37:00,
2014-10-30 06:42:00,60.9,54.0,29.91,SE,128,4.0,4.0,78,0.00,CLR,,0.00,WeatherDisplay:10.37,2014-10-30 13:42:00,
2014-10-30 06:47:00,60.8,53.9,29.91,ESE,116,4.0,4.0,78,0.00,CLR,,0.00,WeatherDisplay:10.37,2014-10-30 13:47:00,
2014-10-30 06:52:00,60.8,54.2,29.91,ESE,117,6.0,6.0,79,0.00,CLR,,0.00,WeatherDisplay:10.37,2014-10-30 13:52:00,
2014-10-30 06:57:00,60.9,54.3,29.92,ESE,112,4.0,4.0,79,0.00,CLR,,0.00,WeatherDisplay:10.37,2014-10-30 13:57:00,
2014-10-30 07:02:00,60.9,54.3,29.92,SE,128,4.0,4.0,79,0.00,CLR,,0.00,WeatherDisplay:10.37,2014-10-30 14:02:00,
2014-10-30 07:07:00,60.8,54.2,29.92,East,92,5.8,5.8,79,0.00,CLR,,0.00,WeatherDisplay:10.37,2014-10-30 14:07:00,
2014-10-30 07:12:00,60.9,54.3,29.91,East,97,5.8,5.8,79,0.00,CLR,,0.00,WeatherDisplay:10.37,2014-10-30 14:12:00,
2014-10-30 07:17:00,61.0,54.4,29.91,East,89,4.0,4.0,79,0.00,CLR,,0.00,WeatherDisplay:10.37,2014-10-30 14:17:00,
2014-10-30 07:22:00,61.1,54.2,29.91,East,94,2.3,2.3,78,0.00,CLR,,0.00,WeatherDisplay:10.37,2014-10-30 14:22:00,
2014-10-30 07:27:00,61.1,54.2,29.92,East,94,1.2,1.2,78,0.00,CLR,,0.00,WeatherDisplay:10.37,2014-10-30 14:27:00,
2014-10-30 07:32:00,61.0,54.1,29.91,East,94,3.5,3.5,78,0.00,CLR,,0.00,WeatherDisplay:10.37,2014-10-30 14:32:00,
2014-10-30 07:37:00,61.0,54.1,29.91,East,92,3.5,3.5,78,0.00,CLR,,0.00,WeatherDisplay:10.37,2014-10-30 14:37:00,
2014-10-30 07:42:00,61.0,54.1,29.91,East,93,3.5,3.5,78,0.00,CLR,,0.00,WeatherDisplay:10.37,2014-10-30 14:42:00,
2014-10-30 07:47:00,61.1,54.2,29.91,East,101,3.5,3.5,78,0.00,CLR,,0.00,WeatherDisplay:10.37,2014-10-30 14:47:00,
2014-10-30 07:52:00,61.2,53.9,29.92,East,86,3.5,3.5,77,0.00,CLR,,0.00,WeatherDisplay:10.37,2014-10-30 14:52:00,
2014-10-30 07:57:00,61.3,54.0,29.92,East,86,2.3,2.3,77,0.00,CLR,,0.00,WeatherDisplay:10.37,2014-10-30 14:57:00,
2014-10-30 08:02:00,61.3,54.0,29.92,WSW,250,3.0,3.0,77,0.00,CLR,,0.00,WeatherDisplay:10.37,2014-10-30 15:02:00,
2014-10-30 08:07:00,61.4,54.8,29.92,WSW,250,1.2,1.2,79,0.00,CLR,,0.00,WeatherDisplay:10.37,2014-10-30 15:07:00,
2014-10-30 08:12:00,61.4,54.8,29.92,WSW,250,2.3,2.3,79,0.00,CLR,,0.00,WeatherDisplay:10.37,2014-10-30 15:12:00,
2014-10-30 08:17:00,61.3,54.7,29.92,SSW,208,3.5,3.5,79,0.00,CLR,,0.00,WeatherDisplay:10.37,2014-10-30 15:17:00,
2014-10-30 08:22:00,61.2,55.0,29.92,SSE,168,2.3,2.3,80,0.00,CLR,,0.00,WeatherDisplay:10.37,2014-10-30 15:22:00,
2014-10-30 08:27:00,61.2,55.0,29.93,SSE,168,2.3,2.3,80,0.00,CLR,,0.00,WeatherDisplay:10.37,2014-10-30 15:27:00,
2014-10-30 08:32:00,61.2,55.0,29.93,SSE,168,1.2,0.0,80,0.00,CLR,,0.00,WeatherDisplay:10.37,2014-10-30 15:32:00,
2014-10-30 08:37:00,61.3,55.1,29.93,SSE,168,1.2,1.2,80,0.00,CLR,,0.00,WeatherDisplay:10.37,2014-10-30 15:37:00,
2014-10-30 08:42:00,61.4,55.2,29.93,SSE,162,2.3,2.3,80,0.00,CLR,,0.00,WeatherDisplay:10.37,2014-10-30 15:42:00,
2014-10-30 08:47:00,61.6,55.4,29.93,SSE,162,1.2,1.2,80,0.00,CLR,,0.00,WeatherDisplay:10.37,2014-10-30 15:47:00,
2014-10-30 08:52:00,62.0,55.8,29.93,SSE,162,1.2,1.2,80,0.00,CLR,,0.00,WeatherDisplay:10.37,2014-10-30 15:52:00,
2014-10-30 08:57:00,62.6,56.0,29.93,SSE,157,2.3,2.3,79,0.00,CLR,,0.00,WeatherDisplay:10.37,2014-10-30 15:57:00,
2014-10-30 09:02:00,63.2,56.2,29.93,SE,137,3.5,3.5,78,0.00,CLR,,0.00,WeatherDisplay:10.37,2014-10-30 16:02:00,
2014-10-30 09:07:00,63.6,56.6,29.93,SE,139,2.3,2.3,78,0.00,CLR,,0.00,WeatherDisplay:10.37,2014-10-30 16:07:00,
2014-10-30 09:12:00,64.0,57.0,29.93,SE,140,2.0,2.0,78,0.00,CLR,,0.00,WeatherDisplay:10.37,2014-10-30 16:12:00,
2014-10-30 09:17:00,64.3,57.6,29.93,SE,133,2.3,2.3,79,0.00,CLR,,0.00,WeatherDisplay:10.37,2014-10-30 16:17:00,
2014-10-30 09:22:00,64.6,57.6,29.93,SE,142,3.5,3.5,78,0.00,CLR,,0.00,WeatherDisplay:10.37,2014-10-30 16:22:00,